Temp
-5 -4 -5 -4 -4 -4 -4 -4 -4 -4 -4 -4 -4 -4 -4 -4 -4 -4 -4 -4 -4 -4 -4 -4 -4 -4 -4 -4 -5 -5 -6 -5 -5 -4 -5 -5 -4 -5 -5 -5 -6 -6 -5 -5 -5
-5 -5 -5 -5 -4 -4 -4 -4 -4 -4 -4 -4 -4 -4 -4 -4 -4 -4 -4 -4 -4 -4 -4 -3 -3 -4 -4 -4 -5 -5 -5 -6 -5 -5 -5 -4 -4 -5 -5 -6 -6 -6 -6 -6 -5
-5 -5 -5 -5 -5 -4 -4 -4 -4 -4 -4 -4 -4 -4 -4 -4 -4 -4 -4 -4 -4 -4 -4 -4 -4 -4 -4 -6 -5 -5 -5 -4 -5 -5 -5 -4 -4 -4 -5 -6 -5 -5 -5 -5 -5
-5 -5 -5 -5 -5 -5 -5 -5 -5 -4 -4 -4 -4 -4 -4 -4 -4 -4 -4 -4 -4 -4 -4 -4 -4 -5 -5 -10 -7 -6 -6 -7 -5 -6 -5 -5 -4 -5 -5 -5 -5 -5 -4 -5 -6
-5 -5 -5 -5 -5 -5 -5 -5 -5 -5 -5 -5 -5 -4 -4 -5 -4 -5 -5 -5 -5 -4 -4 -4 -5 -5 -6 -10 -7 -5 -6 -5 -5 -5 -5 -5 -5 -4 -5 -5 -6 -5 -5 -5 -5
-5 -5 -5 -5 -5 -5 -5 -5 -5 -5 -5 -5 -5 -5 -5 -5 -5 -5 -5 -5 -5 -5 -5 -5 -5 -5 -6 -7 -8 -7 -6 -6 -5 -6 -5 -5 -5 -5 -5 -6 -5 -5 -5 -5 -5
-5 -5 -5 -5 -5 -5 -5 -5 -5 -5 -5 -5 -5 -5 -5 -5 -5 -5 -5 -5 -5 -5 -5 -5 -5 -6 -6 -7 -6 -7 -7 -7 -6 -7 -6 -6 -5 -6 -6 -5 -6 -6 -5 -5 -5
-6 -5 -5 -5 -5 -5 -5 -5 -5 -5 -5 -5 -5 -5 -5 -5 -5 -5 -5 -6 -6 -6 -5 -6 -6 -6 -7 -7 -7 -8 -7 -7 -7 -6 -6 -6 -5 -6 -6 -6 -6 -6 -5 -5 -4
-6 -6 -6 -6 -6 -5 -5 -5 -5 -5 -5 -5 -5 -5 -5 -5 -5 -5 -5 -6 -6 -6 -6 -6 -6 -7 -7 -7 -8 -9 -8 -8 -8 -7 -7 -6 -6 -6 -6 -6 -6 -6 -5 -5 -5
-7 -6 -6 -6 -6 -6 -6 -5 -5 -5 -5 -5 -5 -5 -5 -5 -5 -5 -5 -6 -6 -6 -6 -6 -6 -7 -7 -9 -9 -9 -9 -9 -8 -7 -7 -6 -6 -6 -6 -6 -6 -6 -6 -5 -5
-7 -7 -7 -7 -6 -6 -6 -6 -6 -6 -6 -5 -5 -5 -5 -5 -5 -5 -6 -6 -6 -6 -6 -6 -6 -7 -9 -9 -9 -8 -8 -9 -8 -8 -7 -7 -6 -6 -6 -6 -6 -6 -6 -6 -6
-6 -6 -6 -6 -7 -7 -7 -6 -6 -6 -6 -6 -6 -6 -6 -6 -6 -6 -6 -6 -6 -6 -6 -6 -7 -8 -9 -10 -8 -8 -9 -9 -7 -8 -7 -7 -7 -6 -6 -6 -6 -6 -6 -6 -6
-6 -6 -6 -6 -6 -7 -7 -7 -7 -7 -7 -6 -6 -6 -6 -6 -6 -6 -6 -6 -6 -6 -6 -7 -9 -10 -8 -10 -8 -9 -9 -8 -8 -8 -8 -7 -7 -7 -5 -5 -7 -6 -7 -7 -6
-6 -6 -6 -6 -6 -7 -7 -7 -7 -7 -7 -7 -7 -7 -7 -7 -7 -6 -7 -7 -7 -7 -7 -7 -8 -10 -8 -9 -10 -9 -9 -9 -9 -9 -8 -8 -7 -7 -6 -7 -7 -8 -7 -6 -6
-6 -6 -6 -6 -7 -7 -7 -7 -7 -7 -8 -8 -7 -7 -7 -7 -7 -7 -7 -7 -7 -7 -7 -9 -8 -8 -9 -9 -10 -8 -10 -8 -9 -9 -8 -7 -8 -7 -7 -6 -5 -7 -7 -7 -7
-6 -6 -6 -7 -7 -7 -7 -7 -7 -8 -9 -8 -7 -8 -8 -8 -8 -8 -7 -7 -7 -7 -7 -7 -9 -8 -7 -10 -10 -8 -8 -8 -8 -8 -8 -7 -8 -8 -7 -7 -7 -7 -7 -7 -7
-6 -6 -6 -7 -7 -7 -7 -8 -8 -8 -9 -9 -8 -7 -8 -8 -8 -8 -8 -8 -8 -7 -8 -8 -8 -7 -7 -9 -9 -8 -9 -9 -8 -8 -8 -7 -7 -8 -8 -8 -8 -8 -7 -7 -6
-6 -7 -7 -7 -7 -7 -7 -8 -8 -9 -9 -9 -9 -9 -8 -9 -8 -9 -8 -8 -8 -8 -9 -9 -9 -8 -9 -8 -9 -9 -9 -9 -8 -8 -8 -8 -8 -7 -8 -8 -7 -7 -7 -6 -6
-7 -7 -7 -7 -7 -7 -7 -8 -10 -10 -9 -8 -10 -10 -10 -10 -10 -10 -9 -9 -10 -10 -9 -9 -8 -8 -9 -9 -9 -9 -9 -8 -8 -7 -7 -8 -8 -8 -8 -7 -6 -6 -6 -6 -6
-7 -7 -7 -7 -7 -7 -8 -8 -8 -8 -8 -8 -8 -10 -9 -9 -9 -9 -9 -9 -10 -10 -10 -9 -9 -9 -9 -9 -10 -9 -9 -9 -8 -7 -7 -7 -7 -8 -8 -9 -7 -6 -6 -6 -6
-7 -7 -7 -7 -7 -8 -8 -8 -8 -8 -8 -8 -8 -9 -9 -9 -9 -9 -9 -9 -9 -9 -10 -10 -9 -9 -9 -9 -9 -9 -9 -8 -8 -8 -8 -8 -8 -8 -8 -8 -8 -7 -7 -7 -7
-7 -7 -7 -7 -7 -7 -8 -8 -8 -7 -7 -8 -8 -8 -8 -8 -10 -9 -9 -9 -10 -10 -10 -10 -10 -9 -9 -9 -9 -9 -9 -8 -8 -7 -7 -7 -8 -9 -8 -7 -9 -8 -8 -7 -7
-7 -7 -7 -7 -7 -7 -7 -8 -8 -8 -8 -8 -8 -8 -8 -8 -8 -8 -10 -8 -9 -10 -10 -10 -10 -9 -9 -8 -9 -9 -8 -8 -8 -7 -8 -7 -7 -8 -9 -9 -9 -9 -7 -8 -8
-7 -7 -7 -7 -7 -7 -7 -7 -8 -7 -8 -8 -8 -8 -8 -8 -8 -8 -9 -10 -10 -9 -9 -9 -9 -10 -9 -9 -9 -9 -9 -9 -8 -8 -8 -8 -8 -9 -7 -8 -9 -9 -8 -8 -8
-7 -7 -7 -7 -7 -7 -8 -8 -8 -8 -8 -8 -8 -8 -8 -8 -8 -8 -10 -10 -11 -9 -10 -10 -9 -10 -9 -10 -9 -9 -9 -9 -8 -8 -9 -8 -8 -9 -8 -9 -8 -8 -8 -8 -7
-7 -7 -7 -7 -7 -7 -7 -8 -8 -8 -8 -8 -8 -8 -8 -8 -8 -8 -9 -9 -10 -10 -9 -9 -10 -9 -9 -9 -10 -9 -9 -9 -9 -9 -8 -8 -9 -9 -9 -8 -8 -7 -7 -6 -7
-8 -8 -7 -7 -7 -8 -7 -8 -8 -8 -8 -8 -8 -8 -8 -8 -8 -8 -9 -8 -9 -9 -9 -9 -9 -9 -9 -9 -9 -9 -9 -8 -9 -9 -9 -8 -8 -9 -8 -8 -8 -9 -8 -7 -7
Height
5888 5888 5888 5888 5889 5891 5891 5892 5893 5893 5894 5894 5895 5896 5896 5897 5897 5898 5898 5899 5899 5900 5900 5899 5899 5900 5899 5900 5901 5901 5901 5900 5896 5900 5900 5899 5898 5896 5895 5897 5895 5893 5893 5893 5896
5890 5890 5889 5889 5890 5891 5892 5893 5894 5895 5896 5897 5897 5897 5898 5899 5899 5899 5900 5899 5900 5900 5900 5900 5899 5899 5899 5899 5900 5900 5900 5899 5896 5899 5899 5898 5897 5898 5894 5894 5896 5892 5894 5894 5892
5893 5893 5893 5893 5893 5894 5895 5896 5897 5897 5898 5898 5899 5899 5899 5900 5900 5900 5900 5900 5900 5900 5900 5900 5899 5899 5899 5899 5900 5899 5899 5898 5897 5898 5897 5897 5896 5895 5894 5894 5895 5893 5892 5893 5893
5894 5895 5895 5896 5896 5897 5897 5898 5898 5899 5899 5900 5900 5900 5900 5900 5902 5900 5900 5900 5900 5900 5899 5899 5899 5899 5899 5901 5899 5898 5897 5898 5897 5897 5897 5897 5895 5894 5893 5891 5893 5894 5891 5892 5892
5896 5896 5897 5897 5898 5898 5899 5899 5899 5900 5900 5900 5900 5900 5901 5901 5901 5901 5901 5901 5900 5900 5899 5898 5898 5897 5897 5899 5896 5895 5895 5895 5895 5896 5895 5895 5894 5892 5890 5890 5892 5890 5890 5892 5891
5896 5896 5897 5897 5897 5898 5899 5899 5899 5899 5900 5900 5900 5900 5901 5902 5901 5901 5901 5901 5900 5899 5898 5898 5897 5896 5895 5895 5894 5894 5894 5893 5893 5894 5893 5894 5892 5890 5890 5888 5888 5888 5891 5890 5891
5895 5895 5895 5896 5896 5897 5897 5898 5898 5898 5899 5899 5899 5900 5900 5901 5900 5900 5900 5900 5899 5898 5897 5896 5895 5895 5894 5893 5893 5892 5893 5893 5893 5892 5892 5893 5892 5888 5890 5887 5888 5886 5887 5889 5892
5893 5893 5893 5894 5894 5894 5895 5896 5896 5897 5897 5897 5897 5898 5899 5899 5899 5899 5899 5899 5898 5896 5895 5894 5894 5893 5892 5892 5892 5892 5892 5893 5886 5890 5891 5891 5891 5888 5889 5891 5889 5888 5889 5890 5892
5891 5891 5891 5891 5891 5892 5892 5893 5894 5894 5895 5895 5895 5896 5896 5897 5897 5897 5897 5897 5896 5895 5894 5893 5892 5892 5891 5891 5891 5892 5892 5891 5888 5889 5890 5890 5888 5891 5888 5888 5889 5888 5889 5890 5890
5888 5888 5888 5888 5889 5889 5890 5890 5891 5891 5892 5892 5893 5894 5894 5894 5894 5894 5894 5895 5894 5893 5893 5892 5891 5890 5890 5890 5893 5893 5892 5893 5889 5890 5888 5888 5887 5890 5888 5888 5889 5888 5888 5889 5889
5883 5883 5884 5885 5885 5886 5886 5887 5890 5890 5889 5890 5890 5890 5890 5891 5891 5891 5892 5892 5892 5892 5891 5890 5890 5889 5888 5896 5892 5891 5891 5890 5889 5887 5886 5887 5886 5889 5888 5888 5886 5886 5886 5887 5888
5878 5877 5877 5878 5880 5881 5882 5883 5885 5887 5887 5887 5888 5888 5888 5888 5889 5889 5890 5891 5891 5890 5889 5889 5888 5887 5888 5891 5889 5889 5889 5889 5884 5887 5887 5884 5884 5883 5884 5885 5886 5883 5884 5885 5886
5875 5874 5873 5874 5874 5876 5877 5879 5881 5882 5883 5885 5885 5886 5887 5887 5887 5888 5888 5888 5888 5888 5887 5887 5886 5889 5887 5889 5887 5888 5889 5886 5884 5885 5882 5884 5882 5881 5879 5873 5884 5884 5884 5885 5884
5872 5872 5871 5871 5872 5872 5873 5875 5877 5878 5879 5881 5882 5884 5885 5885 5885 5885 5885 5887 5886 5886 5885 5885 5886 5887 5885 5885 5887 5889 5887 5888 5887 5887 5884 5883 5884 5882 5881 5879 5875 5884 5881 5883 5884
5869 5868 5868 5868 5869 5870 5871 5872 5873 5875 5877 5874 5878 5880 5880 5883 5882 5883 5883 5883 5883 5883 5884 5885 5883 5883 5883 5884 5888 5885 5885 5885 5885 5886 5884 5880 5877 5882 5881 5878 5855 5876 5881 5880 5882
5866 5866 5866 5866 5867 5868 5868 5869 5871 5875 5875 5873 5875 5875 5877 5878 5878 5879 5881 5881 5881 5881 5881 5882 5883 5882 5882 5883 5883 5883 5883 5883 5883 5878 5879 5882 5881 5880 5879 5874 5873 5876 5877 5879 5881
5864 5864 5864 5864 5865 5865 5865 5867 5871 5872 5876 5876 5871 5872 5873 5875 5876 5876 5878 5878 5879 5879 5880 5880 5880 5881 5880 5881 5883 5882 5882 5883 5884 5873 5878 5879 5877 5881 5881 5877 5879 5880 5880 5878 5880
5863 5863 5863 5863 5863 5863 5863 5866 5870 5875 5879 5874 5873 5870 5871 5873 5874 5875 5876 5876 5877 5877 5878 5883 5883 5880 5879 5879 5881 5884 5885 5882 5882 5878 5880 5878 5878 5878 5880 5876 5876 5877 5877 5877 5879
5862 5862 5863 5863 5862 5862 5864 5865 5868 5872 5871 5871 5872 5874 5872 5873 5876 5876 5875 5875 5877 5877 5877 5881 5885 5882 5878 5876 5879 5881 5884 5887 5886 5886 5887 5876 5874 5875 5876 5876 5876 5876 5875 5876 5877
5862 5863 5862 5863 5862 5863 5864 5866 5865 5867 5868 5869 5870 5872 5874 5875 5876 5877 5878 5877 5877 5877 5877 5878 5881 5883 5881 5878 5879 5880 5882 5882 5884 5884 5884 5885 5877 5874 5871 5874 5876 5874 5874 5875 5876
5862 5862 5862 5862 5863 5863 5864 5864 5865 5865 5866 5867 5867 5868 5872 5873 5870 5875 5876 5878 5876 5876 5876 5876 5878 5881 5881 5879 5879 5880 5879 5881 5883 5884 5883 5880 5878 5871 5867 5867 5875 5875 5872 5874 5875
5861 5862 5861 5861 5863 5862 5863 5863 5864 5863 5863 5863 5864 5864 5865 5866 5869 5869 5869 5874 5864 5870 5872 5873 5873 5875 5877 5879 5879 5880 5880 5883 5884 5885 5882 5882 5872 5869 5868 5860 5871 5871 5870 5873 5875
5860 5860 5860 5860 5861 5860 5861 5861 5860 5860 5860 5860 5860 5860 5860 5861 5863 5864 5866 5856 5862 5863 5865 5868 5869 5871 5874 5878 5879 5878 5880 5879 5880 5882 5881 5880 5877 5875 5875 5872 5871 5866 5865 5866 5872
5859 5859 5858 5858 5858 5858 5858 5858 5857 5856 5856 5855 5855 5855 5855 5856 5857 5858 5859 5861 5854 5856 5858 5864 5866 5867 5871 5868 5864 5867 5867 5869 5868 5871 5876 5879 5872 5870 5867 5861 5866 5863 5854 5864 5864
5856 5856 5855 5856 5855 5855 5854 5854 5853 5852 5851 5850 5849 5849 5848 5849 5850 5851 5853 5854 5854 5852 5854 5856 5857 5859 5859 5861 5858 5857 5861 5863 5864 5866 5866 5870 5870 5865 5865 5865 5863 5861 5848 5864 5861
5853 5853 5852 5852 5851 5851 5849 5849 5848 5847 5845 5844 5842 5841 5840 5840 5838 5838 5838 5842 5844 5849 5845 5847 5847 5851 5852 5856 5853 5842 5852 5854 5854 5856 5859 5867 5867 5863 5861 5858 5856 5854 5860 5864 5861
5848 5849 5848 5848 5846 5845 5844 5843 5841 5840 5840 5837 5835 5833 5832 5829 5830 5833 5834 5837 5839 5839 5841 5840 5841 5842 5842 5846 5845 5847 5847 5842 5844 5847 5850 5853 5864 5850 5844 5848 5844 5845 5854 5856 5858
Wind_Speed
8 7 5 6 7 7 7 6 7 10 11 12 12 11 11 13 11 9 9 8 8 6 5 2 1 1 1 1 1 1 1 7 5 10 10 10 10 10 12 8 10 15 11 14 6
12 12 13 12 12 11 13 15 16 15 13 11 11 11 11 10 9 8 6 5 4 4 3 3 3 3 4 3 3 6 4 3 14 11 10 9 9 8 13 10 14 13 10 11 12
11 11 13 15 16 17 17 16 15 13 11 9 7 7 6 7 7 6 5 4 4 4 4 4 5 4 5 7 7 8 11 11 11 11 12 12 10 10 13 10 11 10 10 6 8
7 8 10 11 12 13 13 11 10 9 7 5 4 4 4 4 3 3 3 3 4 5 6 6 6 6 6 6 2 13 11 12 11 12 12 10 13 13 9 10 9 5 7 6 7
4 4 5 6 7 7 7 5 4 3 2 2 2 2 2 2 2 1 2 3 5 6 8 9 8 8 7 9 12 17 14 15 12 14 14 11 12 12 11 14 12 10 6 6 7
2 3 5 5 6 5 5 5 5 4 3 3 3 3 2 2 2 2 2 3 5 7 10 11 10 9 10 11 16 12 14 15 13 12 12 11 13 12 10 12 10 7 7 5 8
7 7 7 8 9 9 9 9 9 8 7 7 7 6 6 4 4 4 3 4 5 8 11 12 11 10 10 11 9 10 11 12 13 14 13 8 11 13 8 14 12 11 8 7 9
10 10 9 10 11 11 12 11 11 11 10 9 10 9 8 8 8 7 6 6 6 9 12 12 12 9 9 9 7 5 6 7 15 16 14 8 13 15 13 12 8 12 10 9 9
9 9 9 9 9 10 11 11 11 11 11 12 12 11 10 11 11 11 10 8 7 9 12 12 12 8 8 6 9 14 11 10 25 17 14 11 14 16 12 11 14 16 12 9 8
15 15 14 14 13 14 14 14 14 14 14 14 14 14 12 13 12 12 11 8 7 9 11 12 11 9 6 8 5 19 13 8 23 12 11 11 16 12 13 10 7 12 9 7 9
22 23 22 21 19 18 17 15 14 13 14 13 12 12 11 10 10 10 9 7 7 10 11 12 10 8 4 8 21 19 19 16 12 14 9 8 12 5 9 8 7 8 5 7 5
20 20 21 22 24 23 21 18 14 13 11 11 10 9 9 8 8 7 7 7 8 10 12 12 5 7 7 17 15 13 6 16 10 16 11 7 9 16 15 8 5 6 7 7 7
13 14 15 15 16 20 25 23 20 17 17 14 13 12 9 9 9 8 8 9 11 11 11 10 6 16 9 14 11 10 8 24 15 9 17 14 15 17 15 18 12 3 4 5 9
11 11 12 13 12 13 14 20 24 23 22 22 18 16 14 13 13 13 12 12 12 11 12 9 7 15 12 11 6 4 15 15 17 14 12 15 16 21 17 16 11 9 4 4 3
13 13 11 10 11 10 7 7 10 14 15 20 16 16 19 17 18 14 14 14 12 11 10 7 11 12 14 9 10 15 14 10 1 11 14 15 18 16 17 21 28 4 3 1 3
9 8 8 8 9 8 10 10 9 7 6 18 14 15 14 13 13 14 12 12 10 10 10 9 12 12 10 13 11 9 6 6 10 18 18 14 15 11 19 24 14 11 14 2 2
7 6 6 6 7 9 12 11 7 5 6 13 16 10 11 11 12 11 10 9 9 8 6 7 10 11 10 11 15 4 3 13 7 18 9 6 7 5 13 15 9 7 8 2 5
4 2 2 3 4 4 4 5 4 3 4 17 5 10 6 9 9 10 7 7 7 7 8 12 16 18 21 11 11 9 10 18 15 25 24 17 7 7 13 16 12 6 6 5 5
2 2 3 4 4 2 2 8 8 10 16 9 6 9 9 10 9 12 10 7 7 13 9 7 8 20 24 9 9 5 5 8 15 15 10 10 20 20 21 12 9 7 6 8 6
1 2 2 2 4 3 2 1 4 7 7 9 6 7 8 11 13 14 13 13 11 13 15 11 8 8 12 11 11 11 13 10 10 7 5 6 19 25 16 7 8 7 8 5 6
0 1 1 1 1 1 1 2 5 5 9 11 12 9 11 13 15 16 11 12 14 11 14 12 11 8 14 18 12 11 6 7 9 11 14 18 20 30 24 11 10 11 10 7 6
1 1 2 2 3 3 5 7 6 8 9 11 12 11 15 18 15 14 19 19 8 9 12 11 11 12 9 13 8 10 16 12 11 9 11 13 23 17 16 15 14 20 16 13 8
3 2 2 3 4 5 5 8 10 12 14 15 15 16 17 19 21 23 17 25 29 14 16 16 13 15 17 15 19 17 17 14 13 13 16 19 23 19 7 17 17 18 14 13 13
5 3 3 4 5 7 8 9 11 12 14 17 17 20 22 21 21 22 26 23 33 30 29 23 17 14 18 24 29 30 28 26 23 20 13 13 19 14 21 19 13 22 23 11 11
7 7 7 8 10 12 13 15 17 18 18 16 19 23 24 26 26 24 19 21 28 34 22 31 33 27 30 21 28 28 36 34 28 25 20 12 26 27 32 28 28 18 16 12 8
11 9 8 11 14 15 17 18 20 20 22 22 22 24 29 31 33 34 32 30 31 19 26 31 31 34 32 33 26 35 21 8 12 26 22 19 18 25 30 36 26 13 10 16 8
15 15 16 16 17 17 20 21 23 23 22 24 23 25 26 33 35 34 35 31 28 31 28 29 27 30 31 30 35 42 27 22 20 27 24 28 21 31 34 27 12 13 15 12 8
Wind_Direction
93 95 127 152 155 141 131 125 121 116 114 113 114 113 112 111 104 101 95 94 92 92 90 85 9 349 357 29 42 270 227 275 229 287 305 301 298 299 310 326 305 307 337 311 302
86 87 90 103 118 120 116 114 113 111 110 104 102 105 116 106 105 101 92 83 69 65 41 354 329 324 310 311 296 278 267 259 285 284 289 303 306 286 305 323 298 293 305 290 301
91 93 96 103 110 114 114 112 110 105 102 102 103 106 113 102 101 96 90 73 44 32 15 333 322 313 303 296 289 277 285 275 281 286 299 313 310 287 288 262 269 212 311 276 291
101 105 109 112 115 118 120 119 112 104 95 96 110 116 120 117 144 94 59 42 19 6 353 340 332 305 278 286 310 279 262 283 273 284 294 304 308 275 286 279 200 282 282 278 277
134 141 142 142 143 141 142 140 134 115 100 90 133 140 148 141 132 7 3 2 357 356 347 340 329 305 277 271 261 267 278 277 273 287 296 308 303 296 286 273 285 282 306 272 265
246 221 210 212 211 213 211 212 222 234 247 242 217 217 215 222 270 292 306 327 327 334 334 335 324 309 292 282 284 298 281 280 267 277 287 304 309 294 265 266 303 309 279 268 256
262 262 254 244 240 241 245 247 251 254 257 260 254 239 231 239 259 273 284 295 304 318 325 332 327 315 301 281 311 302 295 296 294 287 267 296 301 276 283 267 305 321 296 258 233
267 264 256 252 249 249 250 251 255 256 258 261 264 260 251 259 270 273 281 284 292 310 321 327 325 319 303 295 312 324 350 317 305 266 278 262 275 286 287 266 277 290 283 251 241
258 256 251 249 249 248 250 253 256 256 260 264 267 268 263 267 269 273 277 277 276 299 312 322 317 306 299 294 29 306 267 332 300 272 289 274 284 292 288 318 296 289 278 254 244
262 258 258 258 257 256 254 254 257 261 263 264 265 268 268 271 271 272 274 273 272 296 306 318 311 295 303 41 282 271 265 312 291 268 277 291 293 294 297 319 303 287 270 256 258
272 264 258 255 256 257 259 257 258 259 257 260 262 265 269 269 268 264 266 261 276 298 306 313 303 301 75 304 269 277 277 274 280 320 318 310 296 301 299 314 342 307 319 265 250
276 273 268 261 255 252 253 254 251 252 253 252 262 270 275 276 271 265 261 265 287 300 305 308 311 310 221 256 266 276 303 281 265 281 277 279 325 313 307 316 318 339 328 302 270
274 275 275 276 265 253 248 250 252 252 254 252 259 265 270 271 269 263 274 284 295 299 301 307 49 295 264 267 278 345 292 286 283 337 276 267 256 244 240 229 322 359 356 307 263
288 288 283 278 275 270 261 251 250 255 263 264 260 263 268 270 274 277 280 286 288 294 297 294 237 248 267 262 261 257 270 266 300 281 284 318 276 261 271 239 228 321 346 312 216
291 285 281 273 275 273 275 263 253 256 262 269 271 264 262 269 276 271 276 276 279 284 280 265 279 266 268 246 242 256 281 256 18 349 301 310 317 307 323 268 216 112 15 339 277
300 295 286 273 270 266 264 259 251 245 283 276 292 281 263 264 266 268 264 268 264 269 265 266 233 269 266 249 275 306 154 166 298 242 225 265 290 301 326 324 327 345 7 203 275
310 302 293 284 277 271 265 255 229 183 246 289 305 283 260 246 252 265 265 258 258 256 281 278 283 289 285 238 253 63 287 288 303 269 350 28 125 61 326 322 317 304 345 321 270
330 352 352 334 318 284 257 197 162 90 194 257 283 304 252 241 247 258 263 257 245 263 206 287 301 308 305 263 222 270 256 288 311 306 343 317 321 297 318 325 303 308 332 351 264
23 47 67 52 38 27 136 164 107 216 211 251 295 217 268 229 222 247 272 267 280 286 264 215 279 279 288 251 239 207 272 281 297 314 322 242 322 312 292 314 322 303 316 336 320
33 52 63 61 42 49 102 295 270 236 239 261 250 273 225 251 233 233 257 285 275 235 255 226 271 237 277 271 259 252 242 254 249 259 265 268 276 278 286 233 287 302 307 288 305
33 42 36 7 15 12 227 230 277 264 261 262 252 200 235 236 232 241 248 261 253 254 258 245 230 217 234 242 239 266 14 327 279 265 278 294 294 295 315 203 335 305 284 268 293
220 310 331 307 288 274 272 282 289 284 264 261 267 261 249 209 227 268 233 245 230 218 237 244 241 235 223 268 273 245 250 260 277 316 319 286 298 314 332 349 311 319 311 265 260
214 258 270 280 286 277 284 284 289 284 278 273 268 262 253 243 234 225 216 259 246 211 248 226 233 231 225 241 244 233 257 241 266 271 255 274 291 298 328 260 291 298 285 288 259
234 270 246 249 266 268 276 282 293 297 286 285 271 265 264 258 253 250 233 227 260 263 247 242 224 230 232 255 243 226 225 219 212 216 247 252 262 238 266 199 213 288 260 252 250
256 267 265 270 273 275 275 279 289 292 293 293 280 266 261 258 255 253 256 268 252 258 255 245 249 228 216 253 274 249 241 235 208 214 216 254 270 272 281 275 268 257 284 279 255
265 269 274 288 282 279 282 284 285 287 291 295 286 276 266 259 251 243 231 231 235 257 266 249 248 245 251 232 242 289 275 223 250 218 203 257 275 284 288 283 267 294 294 255 255
266 272 280 285 285 282 287 292 291 289 291 290 295 289 274 264 257 254 255 259 265 258 262 267 255 253 252 236 249 238 269 289 289 230 229 225 243 258 258 264 238 288 279 269 259